This demonstration page uses our WeatherBlox Daily Observations layout. Learn more.

Left ArrowRight Arrow

44.89941, -97.11507

Hourly Observations for May 18, 2019

Temp ( °F °C ) Dew Point ( °F °C ) Humidity (%) Winds ( mph kmh ) Pressure ( in mb ) Visibility ( mi km ) Precip ( " mm )
12:17 am 00:17 Cloudy with Light Rain 51 10.6 49 9.4 92 92 ENE 21 33 29.64 1004 10 16 0.04 1.02
12:53 am 00:53 Cloudy with Light Rain 52 11.1 49 9.4 89 89 E 21 33 29.58 1002 10 16 0.04 1.02
1:09 am 01:09 Cloudy with Nearby Thunderstorms 51 10.6 49 9.4 92 92 E 28 44 29.57 1001 8 13 0.02 0.51
1:35 am 01:35 Cloudy with Mist and Fog 49 9.4 47 8.3 93 93 E 25 41 29.56 1001 6 10 0.02 0.51
1:53 am 01:53 Cloudy with Nearby Thunderstorms 49 9.4 47 8.3 93 93 ENE 31 50 29.54 1000 5 8 0.02 0.51
2:09 am 02:09 Cloudy with Thunderstorms 48 8.9 46 7.8 93 93 E 28 44 29.56 1001 5 8 0.03 0.76
2:19 am 02:19 Cloudy with Strong Thunderstorms 48 8.9 46 7.8 93 93 E 24 39 29.60 1002 3 5 0.12 3.05
2:23 am 02:23 Cloudy with Strong Thunderstorms 48 8.9 46 7.8 93 93 E 28 44 29.61 1003 2 3 0.24 6.10
2:36 am 02:36 Cloudy with Thunderstorms 47 8.3 46 7.8 97 97 E 16 26 29.63 1003 3 4 0.34 8.64
2:41 am 02:41 Cloudy with Nearby Thunderstorms 47 8.3 47 8.3 100 100 E 14 22 29.63 1003 3 5 0.36 9.14
2:53 am 02:53 Cloudy with Nearby Thunderstorms 48 8.9 47 8.3 96 96 E 12 19 29.60 1003 5 8 0.40 10.16
3:05 am 03:05 Cloudy with Thunderstorms 48 8.9 46 7.8 93 93 E 14 22 29.62 1003 6 10 0.04 1.02
3:13 am 03:13 Cloudy with Thunderstorms 48 8.9 46 7.8 93 93 E 15 24 29.60 1002 7 11 0.07 1.78
3:20 am 03:20 Cloudy with Nearby Thunderstorms 48 8.9 46 7.8 93 93 E 21 33 29.60 1002 7 11 0.09 2.29
3:28 am 03:28 Cloudy with Rain 48 8.9 46 7.8 93 93 E 18 30 29.61 1003 7 11 0.11 2.79
3:39 am 03:39 Cloudy with Light Rain 48 8.9 46 7.8 93 93 E 17 28 29.62 1003 10 16 0.13 3.30
3:53 am 03:53 Cloudy with Light Rain 48 8.9 46 7.8 93 93 E 18 30 29.57 1002 10 16 0.14 3.56
4:53 am 04:53 Cloudy 47 8.3 45 7.2 93 93 ENE 30 48 29.46 998 10 16 0.01 0.25
5:16 am 05:16 Cloudy 47 8.3 45 7.2 93 93 E 22 35 29.53 1000 10 16 0.00 0.00
5:53 am 05:53 Cloudy with Mist and Fog 46 7.8 45 7.2 96 96 E 13 20 29.56 1001 5 8 0.00 0.00
6:13 am 06:13 Cloudy with Mist and Fog 46 7.8 45 7.2 96 96 ENE 13 20 29.58 1002 2 3 0.00 0.00
6:24 am 06:24 Cloudy with Mist and Fog 46 7.8 45 7.2 96 96 E 13 20 29.59 1002 1 2 0.00 0.00
6:35 am 06:35 Cloudy with Fog 46 7.8 46 7.8 100 100 ENE 14 22 29.59 1002 1 1 0.00 0.00
6:43 am 06:43 Mostly Cloudy with Fog 46 7.8 46 7.8 100 100 ENE 16 26 29.59 1002 0 0 0.00 0.00
6:53 am 06:53 Mostly Cloudy with Fog 46 7.8 46 7.8 100 100 ENE 12 19 29.58 1002 0 0 0.00 0.00
7:11 am 07:11 Mostly Cloudy with Fog 46 7.8 46 7.8 100 100 ENE 14 22 29.59 1002 1 1 0.00 0.00
7:25 am 07:25 Cloudy with Mist and Fog 47 8.3 46 7.8 97 97 ENE 15 24 29.59 1002 1 2 0.00 0.00
7:37 am 07:37 Cloudy with Mist and Fog 46 7.8 45 7.2 96 96 ENE 17 28 29.58 1002 2 3 0.00 0.00
7:44 am 07:44 Cloudy with Mist and Fog 46 7.8 45 7.2 96 96 ENE 15 24 29.58 1002 3 4 0.00 0.00
7:53 am 07:53 Cloudy with Mist and Fog 46 7.8 45 7.2 96 96 NE 17 28 29.57 1001 3 4 0.00 0.00
8:00 am 08:00 Cloudy with Mist and Fog 46 7.8 45 7.2 96 96 NE 17 28 29.58 1002 3 5 0.00 0.00
8:09 am 08:09 Cloudy with Mist and Fog 46 7.8 45 7.2 96 96 NE 17 28 29.59 1002 3 4 0.00 0.00
8:16 am 08:16 Cloudy with Mist and Fog 46 7.8 45 7.2 96 96 ENE 17 28 29.59 1002 3 5 0.00 0.00
8:45 am 08:45 Cloudy with Mist and Fog 46 7.8 45 7.2 96 96 ENE 16 26 29.60 1003 6 10 0.00 0.00
8:53 am 08:53 Cloudy 46 7.8 45 7.2 96 96 ENE 17 28 29.59 1002 7 11 0.00 0.00
9:53 am 09:53 Cloudy 47 8.3 45 7.2 93 93 ENE 21 33 29.60 1002 10 16 0.00 0.00
10:53 am 10:53 Cloudy with Mist and Fog 48 8.9 46 7.8 93 93 NE 23 37 29.61 1003 5 8 0.00 0.00
11:53 am 11:53 Cloudy 49 9.4 46 7.8 90 90 ENE 17 28 29.62 1003 10 16 0.00 0.00
12:53 pm 12:53 Cloudy 49 9.4 46 7.8 90 90 ENE 22 35 29.63 1003 10 16 0.00 0.00
1:53 pm 13:53 Cloudy with Mist and Fog 47 8.3 44 6.7 90 90 ENE 21 33 29.63 1003 5 8 0.00 0.00
2:53 pm 14:53 Cloudy 46 7.8 43 6.1 89 89 ENE 18 30 29.65 1004 10 16 0.00 0.00
3:53 pm 15:53 Cloudy 46 7.8 43 6.1 89 89 ENE 22 35 29.65 1004 7 11 0.02 0.51
4:53 pm 16:53 Cloudy with Mist and Fog 45 7.2 43 6.1 93 93 ENE 21 33 29.70 1006 5 8 0.00 0.00
5:53 pm 17:53 Cloudy with Mist and Fog 44 6.7 42 5.6 93 93 ENE 17 28 29.71 1006 3 5 0.00 0.03
6:08 pm 18:08 Cloudy with Mist and Fog 44 6.7 42 5.6 93 93 ENE 16 26 29.71 1006 3 4 0.00 0.00
6:36 pm 18:36 Cloudy with Light Rain 44 6.7 42 5.6 93 93 ENE 14 22 29.72 1006 2 3 0.01 0.25
6:53 pm 18:53 Cloudy with Light Rain 44 6.7 42 5.6 93 93 ENE 15 24 29.70 1006 2 3 0.02 0.51
7:11 pm 19:11 Cloudy with Light Rain 44 6.7 42 5.6 93 93 NE 14 22 29.71 1006 3 4 0.00 0.03
7:32 pm 19:32 Cloudy with Mist and Fog 44 6.7 42 5.6 93 93 ENE 16 26 29.72 1006 4 6 0.01 0.25
7:53 pm 19:53 Cloudy with Mist and Fog 44 6.7 42 5.6 93 93 ENE 13 20 29.73 1007 4 6 0.01 0.25
8:30 pm 20:30 Cloudy with Light Rain 44 6.7 42 5.6 93 93 ENE 16 26 29.74 1007 3 4 0.00 0.03
8:42 pm 20:42 Cloudy with Mist and Fog 44 6.7 42 5.6 93 93 ENE 15 24 29.74 1007 4 6 0.00 0.03
8:53 pm 20:53 Cloudy 44 6.7 41 5 89 89 ENE 14 22 29.73 1007 9 14 0.00 0.03
9:53 pm 21:53 Cloudy 43 6.1 41 5 93 93 NE 18 30 29.74 1007 10 16 0.00 0.00
10:53 pm 22:53 Cloudy 43 6.1 41 5 93 93 NE 21 33 29.77 1008 10 16 0.00 0.00
11:53 pm 23:53 Cloudy 42 5.6 40 4.4 92 92 NE 17 28 29.77 1008 10 16 0.00 0.00

Powered by AerisWeather